Terminal Aerodrome Forecast
Issued by NWS

Home | Current Version | Previous Version | Text Only | Print | Product List | Glossary On
Versions: 1 2 3 4 5 6 7 8 9 10 11 12 13 14 15 16 17 18 19 20 21 22 23 24 25 26 27 28 29 30 31 32 33 34
000
FTUS43 KDLH 291700
TAFHYR
TAF
KHYR 291735Z 2918/3018 17007KT P6SM VCSH OVC006
     FM291900 19005KT P6SM VCTS BKN006CB OVC015
     FM292100 VRB03KT 6SM TSRA BR BKN015CB
     FM300100 VRB03KT 4SM -RA BR VCTS OVC015CB
     FM300600 00000KT 1SM BR OVC005
     FM301500 35004KT 4SM BR OVC007=

USA.gov is the U.S. government's official web portal to all federal, state and local government web resources and services.